This demonstration page uses our WeatherBlox Daily Observations layout. Learn more.

Left ArrowRight Arrow

Hourly Observations for October 7, 2021

Temp ( °F °C ) Dew Point ( °F °C ) Humidity (%) Winds ( mph kmh ) Pressure ( in mb ) Visibility ( mi km ) Precip ( " mm )
12:15 am 00:15 Clear 58 14.3 53 11.7 85 85 SSE 7 11 30.02 1016 10 16 0.00 0.00
12:35 am 00:35 Clear 57 14 53 11.7 86 86 SSE 8 13 30.02 1017 10 16 0.00 0.00
12:55 am 00:55 Clear 56 13.6 53 11.6 88 88 SE 8 13 30.02 1017 10 16 0.00 0.00
1:15 am 01:15 Clear 56 13.3 53 11.5 89 89 SSE 5 7 30.03 1017 10 16 0.00 0.00
1:35 am 01:35 Clear 55 12.9 53 11.4 91 91 SSE 7 11 30.03 1017 10 16 0.00 0.00
1:55 am 01:55 Clear 55 12.8 52 11.3 91 91 SSE 6 9 30.04 1017 10 16 0.00 0.00
2:15 am 02:15 Clear 55 12.7 52 11.3 91 91 SSE 6 9 30.04 1017 10 16 0.00 0.00
2:35 am 02:35 Clear 55 12.5 52 11.3 92 92 SSE 6 9 30.04 1017 10 16 0.00 0.00
2:55 am 02:55 Clear 54 12.3 52 11.3 94 94 SSE 6 9 30.04 1017 10 16 0.00 0.00
3:15 am 03:15 Clear 55 12.5 53 11.5 94 94 SE 8 13 30.04 1017 10 16 0.00 0.00
3:35 am 03:35 Clear 54 12 52 11.2 95 95 SSE 7 11 30.04 1017 10 16 0.00 0.00
3:55 am 03:55 Clear 55 12.5 53 11.8 96 96 SSE 7 11 30.03 1017 10 16 0.00 0.00
4:15 am 04:15 Clear 55 12.8 54 12 95 95 SE 6 9 30.03 1017 10 16 0.00 0.00
4:35 am 04:35 Clear 55 12.7 54 12 96 96 SE 7 11 30.03 1017 10 16 0.00 0.00
4:55 am 04:55 Clear 55 12.5 54 12 97 97 SE 9 15 30.03 1017 10 16 0.00 0.00
5:15 am 05:15 Clear 55 12.8 54 12.2 96 96 SE 8 13 30.03 1017 10 16 0.00 0.00
5:35 am 05:35 Clear 55 12.6 54 12 96 96 SE 8 13 30.03 1017 10 16 0.00 0.00
5:55 am 05:55 Clear 55 12.7 54 12.1 96 96 SSE 7 11 30.03 1017 10 16 0.00 0.00
6:15 am 06:15 Clear 55 12.5 54 12 97 97 SSE 8 13 30.03 1017 10 16 0.00 0.00
6:35 am 06:35 Clear 55 12.5 54 12 97 97 SSE 8 13 30.03 1017 10 16 0.00 0.00
6:55 am 06:55 Clear 55 12.5 53 11.8 96 96 SE 7 11 30.03 1017 10 16 0.00 0.00
7:15 am 07:15 Clear 55 12.5 54 12 97 97 SE 8 13 30.03 1017 10 16 0.00 0.00
7:35 am 07:35 Clear 54 12.2 53 11.7 97 97 SE 7 11 30.03 1017 10 16 0.00 0.00
7:55 am 07:55 Sunny 54 12.1 53 11.7 97 97 SE 6 9 30.03 1017 10 16 0.00 0.00
8:15 am 08:15 Sunny 55 12.6 54 12.2 97 97 SE 6 9 30.03 1017 10 16 0.00 0.00
8:35 am 08:35 Sunny 56 13.5 55 13 97 97 SE 7 11 30.02 1017 10 16 0.00 0.00
8:55 am 08:55 Sunny 58 14.2 56 13.3 94 94 SE 10 17 30.02 1016 10 16 0.00 0.00
9:15 am 09:15 Sunny 59 14.9 56 13.5 91 91 SE 12 19 30.01 1016 10 16 0.00 0.00
9:35 am 09:35 Sunny 60 15.5 57 13.7 89 89 SSE 9 15 30.00 1016 10 16 0.00 0.00
9:55 am 09:55 Sunny 62 16.5 57 14.1 86 86 SSE 10 17 30.00 1016 10 16 0.00 0.00
10:15 am 10:15 Sunny 64 17.5 58 14.4 82 82 SE 10 17 29.99 1016 10 16 0.00 0.00
10:35 am 10:35 Sunny 67 19.5 57 13.9 70 70 SSE 13 20 29.97 1015 10 16 0.00 0.00
10:55 am 10:55 Sunny 69 20.5 55 13 62 62 SSE 13 20 29.95 1014 10 16 0.00 0.00
11:15 am 11:15 Sunny 70 21.1 54 12.4 58 58 S 13 20 29.95 1014 10 16 0.00 0.00
11:35 am 11:35 Sunny 71 21.5 55 12.8 58 58 S 12 19 29.94 1014 10 16 0.00 0.00
11:55 am 11:55 Sunny 73 22.8 53 11.8 50 50 S 16 26 29.91 1013 10 16 0.00 0.00
12:15 pm 12:15 Sunny 74 23.3 52 11 46 46 S 15 24 29.91 1013 10 16 0.00 0.00
12:55 pm 12:55 Sunny 76 24.3 51 10.5 42 42 S 14 22 29.89 1012 10 16 0.00 0.00
1:15 pm 13:15 Sunny 76 24.7 52 11 42 42 SSE 13 20 29.88 1012 10 16 0.00 0.00
1:35 pm 13:35 Sunny 76 24.4 51 10.3 41 41 SSE 16 26 29.88 1012 10 16 0.00 0.00
1:55 pm 13:55 Sunny 77 25.2 51 10.8 40 40 S 15 24 29.87 1011 10 16 0.00 0.00
2:15 pm 14:15 Sunny 78 25.6 50 10.1 38 38 S 13 20 29.85 1011 10 16 0.00 0.00
2:35 pm 14:35 Sunny 79 26.1 51 10.5 38 38 SSE 13 20 29.84 1010 10 16 0.00 0.00
2:55 pm 14:55 Sunny 79 26.2 51 10.3 37 37 S 16 26 29.83 1010 10 16 0.00 0.00
3:15 pm 15:15 Sunny 79 26.1 51 10.6 38 38 SSE 13 20 29.83 1010 10 16 0.00 0.00
3:35 pm 15:35 Sunny 79 26.2 52 10.9 38 38 S 14 22 29.83 1010 10 16 0.00 0.00
3:55 pm 15:55 Sunny 80 26.6 51 10.6 37 37 SSE 13 20 29.81 1010 10 16 0.00 0.00
4:15 pm 16:15 Sunny 80 26.6 51 10.6 37 37 SSE 13 20 29.81 1010 10 16 0.00 0.00
4:35 pm 16:35 Sunny 80 26.5 51 10.8 37 37 S 12 19 29.81 1010 10 16 0.00 0.00
4:55 pm 16:55 Sunny 80 26.6 51 10.8 37 37 SSE 13 20 29.81 1010 10 16 0.00 0.00
5:15 pm 17:15 Sunny 79 26.3 51 10.6 37 37 S 12 19 29.82 1010 10 16 0.00 0.00
5:35 pm 17:35 Sunny 79 26 52 10.9 39 39 S 14 22 29.82 1010 10 16 0.00 0.00
5:55 pm 17:55 Sunny 78 25.7 52 11.3 41 41 SSE 13 20 29.81 1010 10 16 0.00 0.00
6:15 pm 18:15 Sunny 78 25.4 53 11.4 42 42 SSE 9 15 29.81 1010 10 16 0.00 0.00
6:35 pm 18:35 Sunny 76 24.5 53 11.7 45 45 SE 8 13 29.82 1010 10 16 0.00 0.00
6:55 pm 18:55 Sunny 74 23.1 54 12 50 50 SSE 7 11 29.83 1010 10 16 0.00 0.00
7:15 pm 19:15 Clear 71 21.6 54 12 55 55 SSE 6 9 29.84 1011 10 16 0.00 0.00
7:35 pm 19:35 Clear 69 20.8 53 11.7 56 56 SSE 6 9 29.86 1011 10 16 0.00 0.00
7:55 pm 19:55 Clear 68 20.2 53 11.7 58 58 SSE 5 7 29.87 1011 10 16 0.00 0.00
8:15 pm 20:15 Clear 65 18.6 53 11.8 65 65 SSE 6 9 29.88 1012 10 16 0.00 0.00
8:35 pm 20:35 Clear 65 18.2 53 11.8 66 66 SE 6 9 29.89 1012 10 16 0.00 0.00
8:55 pm 20:55 Clear 64 17.6 53 11.8 69 69 SE 5 7 29.90 1012 10 16 0.00 0.00
9:15 pm 21:15 Clear 61 16.2 53 11.5 74 74 ESE 6 9 29.91 1013 10 16 0.00 0.00
9:35 pm 21:35 Clear 61 16.2 53 11.6 74 74 SE 6 9 29.92 1013 10 16 0.00 0.00
9:55 pm 21:55 Clear 60 15.6 52 11.3 76 76 SE 5 7 29.92 1013 10 16 0.00 0.00
10:15 pm 22:15 Clear 61 16.3 53 11.5 73 73 SE 6 9 29.92 1013 10 16 0.00 0.00
10:35 pm 22:35 Clear 61 15.9 53 11.4 75 75 SE 5 7 29.92 1013 10 16 0.00 0.00
10:55 pm 22:55 Clear 60 15.3 53 11.5 78 78 SE 6 9 29.93 1013 10 16 0.00 0.00
11:15 pm 23:15 Clear 60 15.6 53 11.5 77 77 SSE 6 9 29.92 1013 10 16 0.00 0.00
11:35 pm 23:35 Clear 60 15.5 53 11.6 78 78 SE 5 7 29.93 1013 10 16 0.00 0.00
11:55 pm 23:55 Clear 59 15 53 11.5 80 80 SE 3 6 29.93 1014 10 16 0.00 0.00

Powered by AerisWeather